Location: Newark
(13.8117°N, 3.6025°W)
Time: 11:05:15
(UTC+00:00)

Explorer 11/Cluster Stage 4 - Pass Details

Date: 26 August 2019
Orbit: 467 x 1260 km, 28.8° (Epoch: 19 September)

Event Time Altitude Azimuth Distance (km) Brightness Sun altitude
Rises 18:07:43 0° 267° (W) 3,742 12.1 4.5°
Reaches altitude 10° 18:12:47 10° 236° (WSW) 2,563 10.0 3.3°
Maximum altitude 18:14:41 11° 218° (SW) 2,366 9.5 2.8°
Drops below altitude 10° 18:16:30 10° 199° (SSW) 2,379 9.2 2.4°
Sets 18:20:41 0° 166° (SSE) 3,087 9.4 1.4°
